NDF362A EDDH-HECA

Flight info

Callsign NDF362A
Flight time 3h 49m
Altitude 39000
Route AMLUH2C AMLUH M852 DENIX DCT ZUCKA DCT ARMUT DCT LAMSI DCT BOSNA DCT AKIKA DCT PINDO DCT PAXIS DCT NABSI DCT NOZ L617 CVO DCT
Aircraft A339/H-SADE1E2E3GHIJ3J5M1P2RWXY/LB2D1

Departure

Time 2026-05-05 10:22
Airport Hamburg Helmut Schmidt Airport (EDDH)

Arrival

Time 2026-05-05 14:12
Airport Cairo International Airport (HECA)
Time Latitude Longitude Altitude Speed Heading
2026-05-05 09:44 53.63009 10.00347 54 ft 0 kts 123°
2026-05-05 10:09 53.63020 10.00319 49 ft 4 kts 126°
2026-05-05 10:09 53.63036 10.00283 46 ft 4 kts 133°
2026-05-05 10:09 53.63055 10.00252 46 ft 4 kts 149°
2026-05-05 10:10 53.63075 10.00233 46 ft 4 kts 184°
2026-05-05 10:10 53.63086 10.00232 46 ft 0 kts 202°
2026-05-05 10:12 53.63084 10.00231 46 ft 3 kts 202°
2026-05-05 10:13 53.63028 10.00180 53 ft 12 kts 215°
2026-05-05 10:13 53.62956 10.00106 50 ft 13 kts 214°
2026-05-05 10:13 53.62877 10.00024 49 ft 14 kts 205°
2026-05-05 10:13 53.62789 9.99946 45 ft 15 kts 214°
2026-05-05 10:14 53.62690 9.99851 45 ft 17 kts 209°
2026-05-05 10:14 53.62633 9.99706 49 ft 15 kts 253°
2026-05-05 10:14 53.62613 9.99531 50 ft 16 kts 259°
2026-05-05 10:14 53.62591 9.99343 46 ft 17 kts 259°
2026-05-05 10:15 53.62569 9.99147 53 ft 18 kts 259°
2026-05-05 10:15 53.62545 9.98937 50 ft 19 kts 259°
2026-05-05 10:15 53.62521 9.98717 48 ft 19 kts 259°
2026-05-05 10:15 53.62495 9.98489 47 ft 20 kts 259°
2026-05-05 10:16 53.62468 9.98254 51 ft 21 kts 259°
2026-05-05 10:16 53.62410 9.98049 53 ft 19 kts 229°
2026-05-05 10:16 53.62321 9.97873 46 ft 20 kts 229°
2026-05-05 10:16 53.62228 9.97691 47 ft 21 kts 229°
2026-05-05 10:17 53.62135 9.97503 48 ft 21 kts 237°
2026-05-05 10:17 53.62059 9.97353 47 ft 16 kts 230°
2026-05-05 10:17 53.61991 9.97203 45 ft 17 kts 232°
2026-05-05 10:17 53.61913 9.97051 48 ft 17 kts 229°
2026-05-05 10:18 53.61839 9.96894 47 ft 17 kts 229°
2026-05-05 10:18 53.61760 9.96741 46 ft 18 kts 229°
2026-05-05 10:18 53.61677 9.96578 46 ft 18 kts 234°
2026-05-05 10:18 53.61701 9.96430 50 ft 7 kts 331°
2026-05-05 10:19 53.61703 9.96430 50 ft 0 kts 335°
2026-05-05 10:20 53.61713 9.96426 51 ft 6 kts 344°
2026-05-05 10:20 53.61770 9.96418 52 ft 10 kts 356°
2026-05-05 10:21 53.61847 9.96438 51 ft 12 kts 14°
2026-05-05 10:21 53.61892 9.96494 50 ft 12 kts 43°
2026-05-05 10:21 53.61896 9.96502 50 ft 0 kts 48°
2026-05-05 10:22 53.61904 9.96518 50 ft 17 kts 48°
2026-05-05 10:22 53.62203 9.97108 46 ft 112 kts 51°
2026-05-05 10:22 53.62864 9.98451 92 ft 179 kts 50°
2026-05-05 10:22 53.63641 10.00103 888 ft 181 kts 52°
2026-05-05 10:23 53.64418 10.01776 1810 ft 186 kts 51°
2026-05-05 10:23 53.65239 10.03519 2740 ft 192 kts 50°
2026-05-05 10:23 53.66114 10.05248 3678 ft 195 kts 48°
2026-05-05 10:23 53.67017 10.06980 4521 ft 201 kts 49°
2026-05-05 10:24 53.67963 10.08853 5067 ft 219 kts 50°
2026-05-05 10:24 53.68949 10.10850 5678 ft 229 kts 50°
2026-05-05 10:24 53.69959 10.12933 6453 ft 230 kts 51°
2026-05-05 10:24 53.70676 10.15365 7143 ft 234 kts 78°
2026-05-05 10:25 53.70600 10.18093 7875 ft 236 kts 108°
2026-05-05 10:25 53.69732 10.20419 8569 ft 238 kts 138°
2026-05-05 10:25 53.68275 10.21729 9252 ft 239 kts 166°
2026-05-05 10:25 53.66584 10.22260 9600 ft 257 kts 174°
2026-05-05 10:26 53.64731 10.22656 9777 ft 279 kts 173°
2026-05-05 10:26 53.62781 10.23196 10228 ft 291 kts 170°
2026-05-05 10:26 53.60725 10.23945 10472 ft 313 kts 167°
2026-05-05 10:26 53.58539 10.24877 10665 ft 333 kts 165°
2026-05-05 10:27 53.56263 10.25919 11229 ft 340 kts 165°
2026-05-05 10:27 53.53969 10.26990 11879 ft 343 kts 165°
2026-05-05 10:27 53.51655 10.28068 12539 ft 346 kts 165°
2026-05-05 10:27 53.49315 10.29149 13146 ft 350 kts 165°
2026-05-05 10:28 53.46958 10.30227 13756 ft 353 kts 165°
2026-05-05 10:28 53.44603 10.31299 14345 ft 356 kts 165°
2026-05-05 10:28 53.42196 10.32383 14945 ft 359 kts 165°
2026-05-05 10:28 53.39771 10.33473 15524 ft 362 kts 165°
2026-05-05 10:29 53.37319 10.34577 16102 ft 365 kts 165°
2026-05-05 10:29 53.34875 10.35675 16639 ft 368 kts 165°
2026-05-05 10:29 53.32390 10.36793 17183 ft 371 kts 165°
2026-05-05 10:29 53.29880 10.37923 17722 ft 374 kts 165°
2026-05-05 10:30 53.27357 10.39058 18239 ft 377 kts 165°
2026-05-05 10:30 53.24804 10.40202 18752 ft 380 kts 165°
2026-05-05 10:30 53.22230 10.41353 19278 ft 383 kts 165°
2026-05-05 10:30 53.19646 10.42505 19786 ft 386 kts 165°
2026-05-05 10:31 53.17026 10.43674 20299 ft 389 kts 165°
2026-05-05 10:31 53.14397 10.44846 20786 ft 392 kts 165°
2026-05-05 10:31 53.11735 10.45939 21270 ft 395 kts 168°
2026-05-05 10:31 53.09062 10.46816 21755 ft 398 kts 169°
2026-05-05 10:32 53.06315 10.47680 22252 ft 401 kts 169°
2026-05-05 10:32 53.03553 10.48532 22731 ft 404 kts 169°
2026-05-05 10:32 53.00778 10.49388 23215 ft 407 kts 169°
2026-05-05 10:32 52.97977 10.50252 23703 ft 410 kts 169°
2026-05-05 10:33 52.95188 10.51112 24161 ft 413 kts 169°
2026-05-05 10:33 52.92312 10.51998 24627 ft 416 kts 169°
2026-05-05 10:33 52.89494 10.52868 25077 ft 419 kts 169°
2026-05-05 10:33 52.86612 10.53759 25521 ft 422 kts 169°
2026-05-05 10:34 52.83715 10.54652 25952 ft 425 kts 169°
2026-05-05 10:34 52.80790 10.55553 26368 ft 428 kts 169°
2026-05-05 10:34 52.77854 10.56457 26789 ft 431 kts 169°
2026-05-05 10:34 52.74885 10.57370 27192 ft 433 kts 169°
2026-05-05 10:35 52.71949 10.58271 27584 ft 436 kts 169°
2026-05-05 10:35 52.68953 10.59189 27970 ft 439 kts 169°
2026-05-05 10:35 52.65944 10.60110 28354 ft 441 kts 169°
2026-05-05 10:35 52.62912 10.61036 28719 ft 443 kts 169°
2026-05-05 10:36 52.59869 10.61964 29070 ft 446 kts 169°
2026-05-05 10:36 52.56808 10.62897 29411 ft 448 kts 169°
2026-05-05 10:36 52.53728 10.63835 29762 ft 451 kts 169°
2026-05-05 10:36 52.50631 10.64776 30097 ft 453 kts 169°
2026-05-05 10:37 52.47553 10.65710 30443 ft 456 kts 169°
2026-05-05 10:37 52.44423 10.66658 30794 ft 458 kts 169°
2026-05-05 10:37 52.41277 10.67610 31130 ft 460 kts 169°
2026-05-05 10:37 52.38115 10.68565 31461 ft 463 kts 169°
2026-05-05 10:38 52.34930 10.69526 31794 ft 465 kts 169°
2026-05-05 10:38 52.31764 10.70480 32108 ft 468 kts 169°
2026-05-05 10:38 52.28552 10.71448 32410 ft 470 kts 169°
2026-05-05 10:38 52.25326 10.72420 32670 ft 472 kts 169°
2026-05-05 10:39 52.22077 10.73394 32903 ft 475 kts 169°
2026-05-05 10:39 52.18818 10.74367 33095 ft 476 kts 169°
2026-05-05 10:39 52.15549 10.75341 33325 ft 477 kts 169°
2026-05-05 10:39 52.12319 10.76304 33512 ft 478 kts 169°
2026-05-05 10:40 52.09045 10.77279 33714 ft 478 kts 169°
2026-05-05 10:40 52.05768 10.78256 33935 ft 478 kts 169°
2026-05-05 10:40 52.02491 10.79234 34165 ft 477 kts 169°
2026-05-05 10:40 51.99226 10.80209 34378 ft 477 kts 169°
2026-05-05 10:41 51.95964 10.81180 34592 ft 477 kts 169°
2026-05-05 10:41 51.92743 10.82138 34789 ft 476 kts 169°
2026-05-05 10:41 51.89473 10.83108 35003 ft 476 kts 169°
2026-05-05 10:41 51.86213 10.84074 35194 ft 476 kts 169°
2026-05-05 10:42 51.79696 10.86000 35543 ft 476 kts 169°
2026-05-05 10:42 51.76432 10.86962 35711 ft 477 kts 169°
2026-05-05 10:42 51.73172 10.87921 35918 ft 476 kts 169°
2026-05-05 10:43 51.69913 10.88910 36107 ft 476 kts 167°
2026-05-05 10:43 51.66752 10.90292 36283 ft 476 kts 161°
2026-05-05 10:43 51.63664 10.92261 36446 ft 476 kts 154°
2026-05-05 10:43 51.60678 10.94598 36602 ft 476 kts 153°
2026-05-05 10:44 51.57711 10.96974 36782 ft 476 kts 153°
2026-05-05 10:44 51.54738 10.99334 36951 ft 475 kts 153°
2026-05-05 10:44 51.51757 11.01660 37117 ft 475 kts 154°
2026-05-05 10:44 51.48803 11.03930 37285 ft 475 kts 154°
2026-05-05 10:45 51.45817 11.06199 37476 ft 474 kts 154°
2026-05-05 10:45 51.42828 11.08457 37655 ft 474 kts 154°
2026-05-05 10:45 51.39837 11.10709 37753 ft 475 kts 155°
2026-05-05 10:45 51.36842 11.12962 37903 ft 475 kts 155°
2026-05-05 10:46 51.33846 11.15212 38113 ft 473 kts 155°
2026-05-05 10:46 51.30865 11.17450 38269 ft 473 kts 155°
2026-05-05 10:46 51.27919 11.19659 38417 ft 474 kts 155°
2026-05-05 10:46 51.24930 11.21898 38551 ft 474 kts 155°
2026-05-05 10:47 51.21937 11.24136 38699 ft 474 kts 155°
2026-05-05 10:47 51.18947 11.26371 38841 ft 474 kts 155°
2026-05-05 10:47 51.15960 11.28599 38975 ft 474 kts 155°
2026-05-05 10:48 51.09945 11.33079 38998 ft 479 kts 155°
2026-05-05 10:48 51.03907 11.37563 39003 ft 482 kts 155°
2026-05-05 10:49 50.97807 11.42083 38997 ft 484 kts 155°
2026-05-05 10:49 50.91679 11.46610 39001 ft 486 kts 155°
2026-05-05 10:50 50.85580 11.51102 38995 ft 487 kts 155°
2026-05-05 10:50 50.79428 11.55621 38998 ft 487 kts 155°
2026-05-05 10:51 50.73273 11.60130 38996 ft 487 kts 155°
2026-05-05 10:51 50.67112 11.64631 38997 ft 487 kts 155°
2026-05-05 10:52 50.60949 11.69119 38998 ft 488 kts 155°
2026-05-05 10:52 50.54812 11.73577 38998 ft 488 kts 155°
2026-05-05 10:53 50.48629 11.78055 39006 ft 489 kts 155°
2026-05-05 10:53 50.42439 11.82526 38999 ft 489 kts 155°
2026-05-05 10:54 50.36284 11.86960 38998 ft 489 kts 155°
2026-05-05 10:54 50.30076 11.91419 38998 ft 489 kts 155°
2026-05-05 10:55 50.23882 11.95855 38998 ft 489 kts 155°
2026-05-05 10:55 50.17684 12.00282 38998 ft 490 kts 155°
2026-05-05 10:56 50.11527 12.04668 38999 ft 490 kts 155°
2026-05-05 10:56 50.05327 12.09070 38998 ft 490 kts 156°
2026-05-05 10:57 49.99123 12.13463 38999 ft 490 kts 156°
2026-05-05 10:57 49.92904 12.17856 39003 ft 490 kts 156°
2026-05-05 10:58 49.86701 12.22224 38999 ft 489 kts 156°
2026-05-05 10:58 49.80529 12.26558 38998 ft 489 kts 156°
2026-05-05 10:59 49.74327 12.30978 39005 ft 489 kts 153°
2026-05-05 10:59 49.68538 12.36511 39004 ft 490 kts 142°
2026-05-05 11:00 49.63222 12.43036 39000 ft 490 kts 141°
2026-05-05 11:00 49.57902 12.49590 39001 ft 490 kts 142°
2026-05-05 11:01 49.52530 12.56084 38999 ft 490 kts 142°
2026-05-05 11:01 49.47179 12.62493 38996 ft 490 kts 142°
2026-05-05 11:02 49.41786 12.68928 38996 ft 490 kts 142°
2026-05-05 11:02 49.36387 12.75356 39000 ft 490 kts 142°
2026-05-05 11:03 49.30990 12.81766 39005 ft 490 kts 142°
2026-05-05 11:03 49.25623 12.88123 38995 ft 490 kts 142°
2026-05-05 11:04 49.20245 12.94477 38999 ft 490 kts 142°
2026-05-05 11:04 49.15724 12.99804 38996 ft 491 kts 142°
2026-05-05 11:05 49.09417 13.07214 38998 ft 491 kts 142°
2026-05-05 11:05 49.03987 13.13575 38996 ft 491 kts 142°
2026-05-05 11:06 48.99478 13.18841 39004 ft 491 kts 142°
2026-05-05 11:06 48.94057 13.25158 39006 ft 491 kts 142°
2026-05-05 11:07 48.88625 13.31470 39008 ft 491 kts 142°
2026-05-05 11:07 48.83227 13.37724 38996 ft 490 kts 142°
2026-05-05 11:08 48.77794 13.44001 39007 ft 490 kts 143°
2026-05-05 11:08 48.72365 13.50255 39002 ft 490 kts 143°
2026-05-05 11:09 48.66934 13.56494 39000 ft 490 kts 143°
2026-05-05 11:09 48.61495 13.62597 39007 ft 489 kts 144°
2026-05-05 11:10 48.55919 13.68524 39009 ft 490 kts 145°
2026-05-05 11:10 48.50345 13.74438 39000 ft 490 kts 145°
2026-05-05 11:11 48.44800 13.80342 38998 ft 489 kts 145°
2026-05-05 11:11 48.39226 13.86273 38999 ft 490 kts 145°
2026-05-05 11:12 48.33643 13.92194 38998 ft 490 kts 145°
2026-05-05 11:12 48.28094 13.98060 39005 ft 489 kts 145°
2026-05-05 11:13 48.22517 14.03939 39011 ft 489 kts 145°
2026-05-05 11:13 48.16939 14.09804 39003 ft 489 kts 145°
2026-05-05 11:14 48.11399 14.15614 39000 ft 489 kts 145°
2026-05-05 11:14 48.05816 14.21454 38998 ft 489 kts 145°
2026-05-05 11:15 48.00239 14.27274 38998 ft 489 kts 145°
2026-05-05 11:15 47.94651 14.33089 38999 ft 489 kts 145°
2026-05-05 11:16 47.89096 14.38854 38999 ft 490 kts 145°
2026-05-05 11:16 47.83488 14.44659 39008 ft 491 kts 145°
2026-05-05 11:17 47.77873 14.50457 38997 ft 491 kts 145°
2026-05-05 11:17 47.72242 14.56255 39000 ft 491 kts 146°
2026-05-05 11:18 47.66658 14.61990 39008 ft 491 kts 146°
2026-05-05 11:18 47.61025 14.67759 39008 ft 492 kts 146°
2026-05-05 11:19 47.55377 14.73527 38999 ft 493 kts 146°
2026-05-05 11:19 47.49707 14.79304 39000 ft 493 kts 146°
2026-05-05 11:20 47.44072 14.85029 38997 ft 495 kts 146°
2026-05-05 11:20 47.38396 14.90783 38999 ft 494 kts 146°
2026-05-05 11:21 47.32715 14.96524 39000 ft 493 kts 146°
2026-05-05 11:21 47.27088 15.02195 39005 ft 493 kts 146°
2026-05-05 11:22 47.21402 15.07911 38999 ft 494 kts 146°
2026-05-05 11:22 47.15712 15.13616 38996 ft 494 kts 146°
2026-05-05 11:23 47.10042 15.19288 39009 ft 492 kts 146°
2026-05-05 11:23 47.04407 15.24908 38996 ft 491 kts 146°
2026-05-05 11:24 46.98762 15.30523 39006 ft 490 kts 146°
2026-05-05 11:24 46.93123 15.36119 38997 ft 489 kts 146°
2026-05-05 11:25 46.87515 15.41669 38996 ft 489 kts 146°
2026-05-05 11:25 46.81881 15.47231 39000 ft 489 kts 146°
2026-05-05 11:26 46.76236 15.52789 39003 ft 489 kts 146°
2026-05-05 11:26 46.70595 15.58328 38995 ft 488 kts 146°
2026-05-05 11:27 46.64981 15.63827 38999 ft 488 kts 146°
2026-05-05 11:27 46.59333 15.69347 38997 ft 488 kts 146°
2026-05-05 11:28 46.53676 15.74861 38997 ft 488 kts 146°
2026-05-05 11:28 46.48029 15.80350 38997 ft 488 kts 146°
2026-05-05 11:29 46.42407 15.85802 38999 ft 488 kts 146°
2026-05-05 11:29 46.36757 15.91266 38997 ft 488 kts 146°
2026-05-05 11:30 46.31103 15.96720 39003 ft 488 kts 147°
2026-05-05 11:30 46.25438 16.02172 38996 ft 488 kts 147°
2026-05-05 11:31 46.19804 16.07579 39004 ft 488 kts 147°
2026-05-05 11:31 46.14133 16.13009 38999 ft 489 kts 147°
2026-05-05 11:32 46.08455 16.18433 39011 ft 488 kts 147°
2026-05-05 11:32 46.02820 16.23802 38997 ft 488 kts 147°
2026-05-05 11:33 45.97151 16.29190 38997 ft 487 kts 147°
2026-05-05 11:33 45.91477 16.34568 38998 ft 487 kts 147°
2026-05-05 11:34 45.85848 16.39891 38997 ft 487 kts 147°
2026-05-05 11:34 45.80176 16.45242 39005 ft 487 kts 147°
2026-05-05 11:35 45.74515 16.50570 39005 ft 487 kts 147°
2026-05-05 11:35 45.68840 16.55897 39007 ft 487 kts 147°
2026-05-05 11:36 45.63200 16.61177 38998 ft 487 kts 147°
2026-05-05 11:36 45.57520 16.66482 38999 ft 487 kts 147°
2026-05-05 11:37 45.51834 16.71780 39005 ft 487 kts 147°
2026-05-05 11:37 45.46193 16.77023 38998 ft 487 kts 147°
2026-05-05 11:38 45.40514 16.82289 38996 ft 487 kts 147°
2026-05-05 11:38 45.34825 16.87552 38998 ft 487 kts 147°
2026-05-05 11:39 45.29134 16.92802 38999 ft 487 kts 147°
2026-05-05 11:39 45.23489 16.97999 39000 ft 487 kts 147°
2026-05-05 11:40 45.17806 17.03217 38997 ft 487 kts 147°
2026-05-05 11:40 45.12105 17.08440 38998 ft 487 kts 147°
2026-05-05 11:41 45.06418 17.13637 38999 ft 487 kts 147°
2026-05-05 11:41 45.00712 17.18839 38999 ft 487 kts 147°
2026-05-05 11:42 44.95012 17.24022 38998 ft 487 kts 147°
2026-05-05 11:42 44.89355 17.29155 39004 ft 487 kts 147°
2026-05-05 11:43 44.83650 17.34319 38996 ft 487 kts 147°
2026-05-05 11:43 44.77941 17.39475 39007 ft 487 kts 148°
2026-05-05 11:44 44.72255 17.44596 39001 ft 488 kts 148°
2026-05-05 11:44 44.66497 17.49772 39005 ft 488 kts 148°
2026-05-05 11:45 44.60799 17.54881 38999 ft 489 kts 148°
2026-05-05 11:45 44.55054 17.60020 39011 ft 490 kts 148°
2026-05-05 11:46 44.49297 17.65160 38999 ft 491 kts 148°
2026-05-05 11:46 44.43509 17.70319 38998 ft 492 kts 148°
2026-05-05 11:47 44.37757 17.75434 38997 ft 493 kts 148°
2026-05-05 11:47 44.32084 17.80874 39007 ft 494 kts 143°
2026-05-05 11:48 44.23881 17.89594 39010 ft 491 kts 143°
2026-05-05 11:48 44.18427 17.95312 38996 ft 490 kts 143°
2026-05-05 11:49 44.12943 18.00997 39011 ft 490 kts 143°
2026-05-05 11:49 44.07491 18.06623 38998 ft 491 kts 143°
2026-05-05 11:50 44.01998 18.12278 39010 ft 490 kts 143°
2026-05-05 11:50 43.97435 18.16967 38998 ft 490 kts 143°
2026-05-05 11:51 43.91944 18.22595 38999 ft 490 kts 143°
2026-05-05 11:51 43.86443 18.28222 38997 ft 491 kts 143°
2026-05-05 11:52 43.80951 18.33826 38999 ft 490 kts 144°
2026-05-05 11:52 43.75492 18.39384 39003 ft 491 kts 144°
2026-05-05 11:53 43.69979 18.44983 38999 ft 491 kts 144°
2026-05-05 11:53 43.64453 18.50582 38995 ft 492 kts 144°
2026-05-05 11:54 43.58912 18.56183 38999 ft 493 kts 144°
2026-05-05 11:54 43.53400 18.61742 38999 ft 493 kts 144°
2026-05-05 11:55 43.47858 18.67319 38997 ft 492 kts 144°
2026-05-05 11:55 43.42314 18.72884 38998 ft 493 kts 144°
2026-05-05 11:56 43.36763 18.78442 38996 ft 493 kts 144°
2026-05-05 11:56 43.31239 18.83962 39002 ft 494 kts 144°
2026-05-05 11:57 43.25682 18.89501 39001 ft 494 kts 144°
2026-05-05 11:57 43.20111 18.95043 39001 ft 495 kts 144°
2026-05-05 11:58 43.14510 19.00602 39002 ft 496 kts 144°
2026-05-05 11:58 43.08906 19.06150 38995 ft 497 kts 144°
2026-05-05 11:59 43.03284 19.11703 38997 ft 498 kts 144°
2026-05-05 11:59 42.97701 19.17205 38996 ft 497 kts 144°
2026-05-05 12:00 42.92087 19.22724 38995 ft 496 kts 144°
2026-05-05 12:00 42.86479 19.28224 39001 ft 496 kts 144°
2026-05-05 12:01 42.80881 19.33704 39001 ft 495 kts 144°
2026-05-05 12:01 42.75284 19.39168 38995 ft 492 kts 144°
2026-05-05 12:02 42.69760 19.44549 38997 ft 491 kts 144°
2026-05-05 12:02 42.64193 19.49960 38994 ft 493 kts 144°
2026-05-05 12:03 42.58597 19.55387 39000 ft 495 kts 144°
2026-05-05 12:03 42.52912 19.60669 39004 ft 496 kts 149°
2026-05-05 12:04 42.46837 19.65040 38997 ft 493 kts 154°
2026-05-05 12:04 42.40661 19.69147 39000 ft 495 kts 154°
2026-05-05 12:05 42.34486 19.73299 39001 ft 495 kts 154°
2026-05-05 12:05 42.28322 19.77469 39004 ft 494 kts 154°
2026-05-05 12:06 42.22216 19.81600 38999 ft 491 kts 154°
2026-05-05 12:06 42.16104 19.85723 39004 ft 491 kts 154°
2026-05-05 12:07 42.09999 19.89831 38996 ft 490 kts 154°
2026-05-05 12:07 42.03907 19.93922 39001 ft 490 kts 154°
2026-05-05 12:08 41.97792 19.98018 38997 ft 491 kts 154°
2026-05-05 12:08 41.91679 20.02104 39000 ft 491 kts 154°
2026-05-05 12:09 41.85561 20.06185 38999 ft 490 kts 154°
2026-05-05 12:09 41.79483 20.10230 38998 ft 491 kts 154°
2026-05-05 12:10 41.73341 20.14308 38998 ft 493 kts 154°
2026-05-05 12:10 41.67177 20.18393 39001 ft 495 kts 154°
2026-05-05 12:11 41.60985 20.22487 38998 ft 495 kts 154°
2026-05-05 12:11 41.54806 20.26564 38996 ft 495 kts 154°
2026-05-05 12:12 41.48685 20.30594 39002 ft 493 kts 154°
2026-05-05 12:12 41.42528 20.34639 38999 ft 494 kts 154°
2026-05-05 12:13 41.36349 20.38690 38995 ft 494 kts 154°
2026-05-05 12:13 41.30161 20.42738 38998 ft 495 kts 154°
2026-05-05 12:14 41.24015 20.46750 39002 ft 495 kts 154°
2026-05-05 12:14 41.17820 20.50786 38999 ft 496 kts 154°
2026-05-05 12:15 41.11617 20.54818 38997 ft 495 kts 154°
2026-05-05 12:15 41.05440 20.58826 39003 ft 493 kts 154°
2026-05-05 12:16 40.99277 20.62815 38998 ft 493 kts 154°
2026-05-05 12:16 40.93116 20.66795 39000 ft 492 kts 154°
2026-05-05 12:17 40.86965 20.70760 38995 ft 492 kts 154°
2026-05-05 12:17 40.80851 20.74694 39002 ft 492 kts 154°
2026-05-05 12:18 40.74696 20.78647 39006 ft 492 kts 154°
2026-05-05 12:18 40.68545 20.82585 39001 ft 492 kts 154°
2026-05-05 12:19 40.62383 20.86524 38997 ft 493 kts 154°
2026-05-05 12:19 40.56191 20.90475 38997 ft 494 kts 154°
2026-05-05 12:20 40.50038 20.94482 38996 ft 493 kts 151°
2026-05-05 12:20 40.44320 20.99462 39003 ft 494 kts 141°
2026-05-05 12:21 40.39059 21.05274 38999 ft 494 kts 140°
2026-05-05 12:21 40.33816 21.11102 39004 ft 494 kts 140°
2026-05-05 12:22 40.28571 21.16856 38999 ft 494 kts 140°
2026-05-05 12:22 40.23281 21.22619 39002 ft 493 kts 140°
2026-05-05 12:23 40.17998 21.28359 38997 ft 493 kts 140°
2026-05-05 12:23 40.12723 21.34080 39002 ft 493 kts 140°
2026-05-05 12:24 40.07474 21.39759 38996 ft 492 kts 140°
2026-05-05 12:24 40.02196 21.45453 38995 ft 491 kts 140°
2026-05-05 12:25 39.96927 21.51127 39007 ft 492 kts 140°
2026-05-05 12:25 39.91648 21.56798 39003 ft 492 kts 140°
2026-05-05 12:26 39.86371 21.62457 39005 ft 491 kts 141°
2026-05-05 12:26 39.81091 21.68106 38999 ft 491 kts 141°
2026-05-05 12:27 39.75814 21.73741 38998 ft 491 kts 141°
2026-05-05 12:27 39.70534 21.79369 38995 ft 490 kts 141°
2026-05-05 12:28 39.65256 21.84982 38999 ft 491 kts 141°
2026-05-05 12:28 39.59970 21.90592 39001 ft 490 kts 141°
2026-05-05 12:29 39.54687 21.96188 38999 ft 489 kts 141°
2026-05-05 12:29 39.49418 22.01757 39000 ft 488 kts 141°
2026-05-05 12:30 39.44192 22.07269 39002 ft 488 kts 141°
2026-05-05 12:30 39.38935 22.12804 38997 ft 487 kts 141°
2026-05-05 12:31 39.33665 22.18341 38998 ft 487 kts 141°
2026-05-05 12:31 39.28398 22.23864 38999 ft 487 kts 141°
2026-05-05 12:32 39.23129 22.29377 39003 ft 487 kts 141°
2026-05-05 12:32 39.17856 22.34885 38999 ft 488 kts 141°
2026-05-05 12:33 39.12571 22.40393 39006 ft 489 kts 141°
2026-05-05 12:33 39.07314 22.45863 39008 ft 489 kts 141°
2026-05-05 12:34 39.02013 22.51366 38998 ft 490 kts 141°
2026-05-05 12:34 38.96699 22.56866 39000 ft 491 kts 141°
2026-05-05 12:35 38.91374 22.62342 39007 ft 489 kts 141°
2026-05-05 12:35 38.86058 22.67773 39032 ft 488 kts 142°
2026-05-05 12:36 38.81640 22.72265 39036 ft 487 kts 142°
2026-05-05 12:36 38.75455 22.78524 39036 ft 488 kts 142°
2026-05-05 12:37 38.70973 22.83040 39028 ft 490 kts 142°
2026-05-05 12:37 38.65648 22.88389 39009 ft 490 kts 142°
2026-05-05 12:38 38.60358 22.93689 38996 ft 490 kts 142°
2026-05-05 12:38 38.54982 22.99060 38983 ft 490 kts 142°
2026-05-05 12:39 38.49618 23.04408 38964 ft 489 kts 142°
2026-05-05 12:39 38.44467 23.09805 38996 ft 487 kts 139°
2026-05-05 12:40 38.39333 23.15461 38995 ft 487 kts 140°
2026-05-05 12:40 38.34121 23.20906 39001 ft 487 kts 141°
2026-05-05 12:41 38.28810 23.26290 38997 ft 488 kts 142°
2026-05-05 12:41 38.23473 23.31661 38996 ft 488 kts 142°
2026-05-05 12:42 38.18135 23.37027 39009 ft 489 kts 142°
2026-05-05 12:42 38.12788 23.42398 38998 ft 489 kts 142°
2026-05-05 12:43 38.07479 23.47721 38998 ft 489 kts 142°
2026-05-05 12:43 38.02135 23.53070 38998 ft 488 kts 142°
2026-05-05 12:44 37.96799 23.58400 39007 ft 488 kts 142°
2026-05-05 12:44 37.91472 23.63713 39010 ft 487 kts 142°
2026-05-05 12:45 37.86141 23.69018 38998 ft 487 kts 142°
2026-05-05 12:45 37.80820 23.74303 39001 ft 487 kts 142°
2026-05-05 12:46 37.75487 23.79590 38996 ft 487 kts 142°
2026-05-05 12:46 37.70191 23.84831 39006 ft 486 kts 142°
2026-05-05 12:47 37.64857 23.90099 38998 ft 486 kts 142°
2026-05-05 12:47 37.59520 23.95361 39010 ft 486 kts 142°
2026-05-05 12:48 37.54184 24.00612 38999 ft 486 kts 142°
2026-05-05 12:48 37.48841 24.05860 38998 ft 486 kts 142°
2026-05-05 12:49 37.43505 24.11092 38995 ft 486 kts 142°
2026-05-05 12:49 37.38193 24.16290 38998 ft 486 kts 142°
2026-05-05 12:50 37.32849 24.21510 38999 ft 486 kts 142°
2026-05-05 12:50 37.27543 24.26683 38995 ft 486 kts 142°
2026-05-05 12:51 37.22196 24.31887 39007 ft 486 kts 142°
2026-05-05 12:51 37.16843 24.37087 38999 ft 486 kts 142°
2026-05-05 12:52 37.11489 24.42278 38995 ft 486 kts 142°
2026-05-05 12:52 37.06130 24.47465 38998 ft 486 kts 142°
2026-05-05 12:53 37.00764 24.52648 38997 ft 486 kts 142°
2026-05-05 12:53 36.95403 24.57818 39005 ft 486 kts 142°
2026-05-05 12:54 36.87356 24.65559 38999 ft 486 kts 142°
2026-05-05 12:55 36.81991 24.70708 38995 ft 486 kts 142°
2026-05-05 12:55 36.76651 24.75824 39005 ft 486 kts 142°
2026-05-05 12:56 36.71274 24.80965 38997 ft 486 kts 142°
2026-05-05 12:56 36.65899 24.86096 38996 ft 486 kts 143°
2026-05-05 12:57 36.60518 24.91224 39001 ft 487 kts 143°
2026-05-05 12:57 36.55129 24.96350 38997 ft 487 kts 143°
2026-05-05 12:58 36.49741 25.01466 39002 ft 487 kts 143°
2026-05-05 12:58 36.44390 25.06537 38995 ft 487 kts 143°
2026-05-05 12:59 36.38991 25.11646 39006 ft 487 kts 143°
2026-05-05 12:59 36.33598 25.16739 39003 ft 486 kts 143°
2026-05-05 13:00 36.25518 25.24352 39001 ft 486 kts 143°
2026-05-05 13:01 36.14760 25.34459 39005 ft 486 kts 143°
2026-05-05 13:01 36.09362 25.39516 39006 ft 486 kts 143°
2026-05-05 13:02 36.03993 25.44538 39011 ft 486 kts 143°
2026-05-05 13:02 35.98593 25.49579 39011 ft 486 kts 143°
2026-05-05 13:03 35.93188 25.54616 39006 ft 486 kts 143°
2026-05-05 13:03 35.87788 25.59641 39006 ft 486 kts 143°
2026-05-05 13:04 35.82378 25.64664 39005 ft 486 kts 143°
2026-05-05 13:04 35.76971 25.69677 38996 ft 486 kts 143°
2026-05-05 13:05 35.71559 25.74685 38997 ft 486 kts 143°
2026-05-05 13:05 35.66146 25.79686 38995 ft 486 kts 143°
2026-05-05 13:06 35.60759 25.84654 39000 ft 486 kts 143°
2026-05-05 13:06 35.55344 25.89639 38999 ft 486 kts 143°
2026-05-05 13:07 35.49927 25.94618 39007 ft 486 kts 143°
2026-05-05 13:07 35.44506 25.99592 38997 ft 486 kts 143°
2026-05-05 13:08 35.39079 26.04562 38995 ft 486 kts 143°
2026-05-05 13:08 35.33659 26.09519 38995 ft 486 kts 143°
2026-05-05 13:09 35.28230 26.14474 38995 ft 486 kts 143°
2026-05-05 13:09 35.22798 26.19423 39003 ft 486 kts 143°
2026-05-05 13:10 35.17395 26.24338 38997 ft 487 kts 143°
2026-05-05 13:10 35.11958 26.29275 38997 ft 487 kts 143°
2026-05-05 13:11 35.06520 26.34206 38997 ft 487 kts 143°
2026-05-05 13:11 35.01070 26.39138 38996 ft 487 kts 143°
2026-05-05 13:12 34.95633 26.44051 38997 ft 487 kts 143°
2026-05-05 13:12 34.90192 26.48958 38995 ft 486 kts 143°
2026-05-05 13:13 34.84743 26.53864 38997 ft 486 kts 143°
2026-05-05 13:13 34.79300 26.58757 38997 ft 486 kts 144°
2026-05-05 13:14 34.73854 26.63644 38997 ft 486 kts 144°
2026-05-05 13:14 34.68403 26.68527 39005 ft 486 kts 144°
2026-05-05 13:15 34.62984 26.73375 38996 ft 486 kts 144°
2026-05-05 13:15 34.57532 26.78243 38998 ft 486 kts 144°
2026-05-05 13:16 34.52075 26.83107 38997 ft 486 kts 144°
2026-05-05 13:16 34.46601 26.87979 39005 ft 486 kts 144°
2026-05-05 13:17 34.41176 26.92799 38998 ft 486 kts 144°
2026-05-05 13:17 34.35707 26.97650 38997 ft 486 kts 144°
2026-05-05 13:18 34.30239 27.02492 39003 ft 486 kts 144°
2026-05-05 13:18 34.24776 27.07323 38996 ft 486 kts 144°
2026-05-05 13:19 34.19311 27.12149 39007 ft 486 kts 144°
2026-05-05 13:19 34.13846 27.16969 39004 ft 486 kts 144°
2026-05-05 13:20 34.08413 27.21754 39003 ft 486 kts 144°
2026-05-05 13:20 34.02947 27.26559 38995 ft 486 kts 144°
2026-05-05 13:21 33.97476 27.31362 39005 ft 486 kts 144°
2026-05-05 13:21 33.91915 27.36003 38995 ft 486 kts 147°
2026-05-05 13:22 33.86290 27.40532 39008 ft 486 kts 146°
2026-05-05 13:22 33.82303 27.43754 38996 ft 486 kts 146°
2026-05-05 13:23 33.76678 27.48299 38995 ft 486 kts 147°
2026-05-05 13:23 33.71963 27.52077 39003 ft 486 kts 147°
2026-05-05 13:24 33.66364 27.56557 39010 ft 486 kts 147°
2026-05-05 13:24 33.60729 27.61064 38995 ft 486 kts 147°
2026-05-05 13:25 33.55098 27.65563 39009 ft 486 kts 147°
2026-05-05 13:25 33.49466 27.70056 39000 ft 486 kts 147°
2026-05-05 13:26 33.43831 27.74544 38997 ft 486 kts 147°
2026-05-05 13:26 33.38191 27.79028 38997 ft 486 kts 147°
2026-05-05 13:27 33.32590 27.83475 39006 ft 486 kts 147°
2026-05-05 13:27 33.26949 27.87945 38998 ft 486 kts 147°
2026-05-05 13:28 33.21308 27.92409 39000 ft 486 kts 147°
2026-05-05 13:28 33.15664 27.96869 38995 ft 486 kts 147°
2026-05-05 13:29 33.10024 28.01318 39000 ft 486 kts 147°
2026-05-05 13:29 33.04375 28.05767 39001 ft 486 kts 147°
2026-05-05 13:30 32.98730 28.10202 38999 ft 486 kts 147°
2026-05-05 13:30 32.93100 28.14615 39001 ft 486 kts 147°
2026-05-05 13:31 32.87443 28.19044 38998 ft 486 kts 147°
2026-05-05 13:31 32.81793 28.23460 39002 ft 486 kts 147°
2026-05-05 13:32 32.76137 28.27875 38997 ft 486 kts 147°
2026-05-05 13:32 32.70487 28.32280 39001 ft 486 kts 147°
2026-05-05 13:33 32.64866 28.36656 39006 ft 486 kts 147°
2026-05-05 13:33 32.59207 28.41055 38996 ft 486 kts 147°
2026-05-05 13:34 32.53542 28.45452 39007 ft 486 kts 147°
2026-05-05 13:34 32.47920 28.49810 39009 ft 486 kts 147°
2026-05-05 13:35 32.42250 28.54198 38998 ft 485 kts 147°
2026-05-05 13:35 32.36590 28.58572 39002 ft 485 kts 147°
2026-05-05 13:36 32.30962 28.62916 39002 ft 485 kts 147°
2026-05-05 13:36 32.25322 28.67262 39001 ft 485 kts 147°
2026-05-05 13:37 32.19633 28.71640 38995 ft 485 kts 148°
2026-05-05 13:37 32.13972 28.75989 38997 ft 485 kts 148°
2026-05-05 13:38 32.08307 28.80336 38997 ft 485 kts 148°
2026-05-05 13:38 32.02645 28.84673 39003 ft 485 kts 148°
2026-05-05 13:39 31.96978 28.89008 38997 ft 485 kts 148°
2026-05-05 13:39 31.91347 28.93309 39002 ft 485 kts 148°
2026-05-05 13:40 31.85679 28.97633 39002 ft 485 kts 148°
2026-05-05 13:40 31.79997 29.01960 38999 ft 485 kts 148°
2026-05-05 13:41 31.74553 29.06559 39005 ft 485 kts 140°
2026-05-05 13:41 31.69822 29.12230 39003 ft 486 kts 129°
2026-05-05 13:42 31.65872 29.18679 39002 ft 486 kts 125°
2026-05-05 13:42 31.62007 29.25156 39002 ft 486 kts 126°
2026-05-05 13:43 31.58067 29.31630 39000 ft 487 kts 126°
2026-05-05 13:43 31.54120 29.38054 38999 ft 478 kts 126°
2026-05-05 13:44 31.50269 29.44303 39001 ft 471 kts 126°
2026-05-05 13:44 31.46440 29.50506 39003 ft 473 kts 126°
2026-05-05 13:45 31.42584 29.56744 39000 ft 472 kts 126°
2026-05-05 13:45 31.38930 29.62644 38996 ft 472 kts 126°
2026-05-05 13:46 31.35070 29.68866 39001 ft 472 kts 126°
2026-05-05 13:46 31.31228 29.75048 39000 ft 472 kts 126°
2026-05-05 13:47 31.27356 29.81266 38996 ft 472 kts 126°
2026-05-05 13:47 31.23488 29.87469 38998 ft 472 kts 126°
2026-05-05 13:48 31.19816 29.93854 39002 ft 472 kts 119°
2026-05-05 13:48 31.17080 30.00780 38721 ft 472 kts 109°
2026-05-05 13:49 31.16087 30.04376 38474 ft 471 kts 107°
2026-05-05 13:49 31.15139 30.08045 38219 ft 471 kts 107°
2026-05-05 13:49 31.14185 30.11711 37961 ft 472 kts 107°
2026-05-05 13:49 31.13215 30.15366 37737 ft 471 kts 107°
2026-05-05 13:50 31.12231 30.19019 37477 ft 471 kts 107°
2026-05-05 13:50 31.11239 30.22660 37225 ft 471 kts 108°
2026-05-05 13:50 31.10177 30.26282 36977 ft 471 kts 112°
2026-05-05 13:50 31.08708 30.29693 36726 ft 471 kts 122°
2026-05-05 13:51 31.06764 30.32776 36480 ft 471 kts 131°
2026-05-05 13:51 31.04477 30.35438 36238 ft 471 kts 138°
2026-05-05 13:51 31.02043 30.37990 35998 ft 471 kts 138°
2026-05-05 13:51 30.99616 30.40559 35742 ft 471 kts 137°
2026-05-05 13:52 30.97204 30.43159 35481 ft 472 kts 137°
2026-05-05 13:52 30.94803 30.45783 35158 ft 472 kts 136°
2026-05-05 13:52 30.92413 30.48409 34391 ft 474 kts 136°
2026-05-05 13:52 30.90005 30.51061 33212 ft 478 kts 136°
2026-05-05 13:53 30.87570 30.53741 31714 ft 484 kts 136°
2026-05-05 13:53 30.85143 30.56404 30331 ft 486 kts 136°
2026-05-05 13:53 30.82694 30.59087 29307 ft 480 kts 136°
2026-05-05 13:53 30.80276 30.61732 28568 ft 472 kts 136°
2026-05-05 13:54 30.77912 30.64318 28108 ft 460 kts 136°
2026-05-05 13:54 30.75615 30.66830 27719 ft 446 kts 136°
2026-05-05 13:54 30.73366 30.69291 26967 ft 444 kts 136°
2026-05-05 13:54 30.71134 30.71729 26316 ft 437 kts 136°
2026-05-05 13:55 30.68931 30.74135 25627 ft 432 kts 136°
2026-05-05 13:55 30.66751 30.76513 24962 ft 427 kts 136°
2026-05-05 13:55 30.64595 30.78863 24286 ft 422 kts 136°
2026-05-05 13:55 30.62468 30.81179 23623 ft 417 kts 136°
2026-05-05 13:56 30.60365 30.83468 22964 ft 411 kts 136°
2026-05-05 13:56 30.58314 30.85699 22236 ft 407 kts 137°
2026-05-05 13:56 30.56298 30.87892 21653 ft 400 kts 136°
2026-05-05 13:56 30.54281 30.90085 21012 ft 394 kts 137°
2026-05-05 13:57 30.52297 30.92238 20363 ft 387 kts 137°
2026-05-05 13:57 30.50344 30.94356 19735 ft 381 kts 137°
2026-05-05 13:57 30.48421 30.96441 19125 ft 375 kts 137°
2026-05-05 13:57 30.46532 30.98489 18511 ft 369 kts 137°
2026-05-05 13:58 30.44672 31.00504 17900 ft 363 kts 137°
2026-05-05 13:58 30.42814 31.02516 17285 ft 378 kts 137°
2026-05-05 13:58 30.40707 31.04404 16659 ft 385 kts 150°
2026-05-05 13:58 30.38234 31.05509 16042 ft 377 kts 168°
2026-05-05 13:59 30.33077 31.06115 14797 ft 372 kts 175°
2026-05-05 13:59 30.30520 31.06368 14172 ft 366 kts 175°
2026-05-05 14:00 30.25515 31.06860 12925 ft 361 kts 175°
2026-05-05 14:00 30.23836 31.07024 12503 ft 357 kts 175°
2026-05-05 14:00 30.20595 31.06796 11671 ft 353 kts 196°
2026-05-05 14:00 30.18424 31.05589 11064 ft 344 kts 214°
2026-05-05 14:01 30.16501 31.04035 10440 ft 329 kts 215°
2026-05-05 14:01 30.14672 31.02549 9812 ft 313 kts 215°
2026-05-05 14:01 30.12936 31.01138 9184 ft 298 kts 215°
2026-05-05 14:01 30.11268 30.99781 8394 ft 290 kts 215°
2026-05-05 14:02 30.09544 30.98615 7454 ft 288 kts 200°
2026-05-05 14:02 30.07585 30.98314 6589 ft 284 kts 174°
2026-05-05 14:02 30.05791 30.99044 6216 ft 263 kts 146°
2026-05-05 14:02 30.04511 31.00412 5916 ft 243 kts 134°
2026-05-05 14:03 30.03353 31.01806 5469 ft 238 kts 134°
2026-05-05 14:03 30.02225 31.03166 4936 ft 237 kts 134°
2026-05-05 14:03 30.01102 31.04523 4716 ft 223 kts 134°
2026-05-05 14:03 30.00071 31.05775 4593 ft 209 kts 134°
2026-05-05 14:04 29.99085 31.06976 4340 ft 204 kts 134°
2026-05-05 14:04 29.98109 31.08167 4077 ft 203 kts 134°
2026-05-05 14:04 29.97152 31.09336 3788 ft 203 kts 134°
2026-05-05 14:04 29.96246 31.10578 3512 ft 201 kts 119°
2026-05-05 14:05 29.95948 31.12120 3468 ft 204 kts 87°
2026-05-05 14:05 29.96046 31.13442 3442 ft 203 kts 84°
2026-05-05 14:05 29.96194 31.15064 3258 ft 200 kts 84°
2026-05-05 14:05 29.96342 31.16663 3025 ft 201 kts 84°
2026-05-05 14:06 29.96494 31.18264 2775 ft 200 kts 83°
2026-05-05 14:06 29.96756 31.19829 2646 ft 195 kts 76°
2026-05-05 14:06 29.97097 31.21380 2648 ft 203 kts 75°
2026-05-05 14:06 29.97451 31.22925 2650 ft 197 kts 75°
2026-05-05 14:07 29.97809 31.24526 2644 ft 207 kts 76°
2026-05-05 14:07 29.98201 31.26040 2649 ft 192 kts 67°
2026-05-05 14:07 29.98838 31.27359 2666 ft 191 kts 54°
2026-05-05 14:07 29.99658 31.28558 2648 ft 188 kts 47°
2026-05-05 14:08 30.00510 31.29640 2639 ft 176 kts 47°
2026-05-05 14:08 30.01293 31.30681 2650 ft 171 kts 48°
2026-05-05 14:08 30.02063 31.31708 2662 ft 165 kts 48°
2026-05-05 14:08 30.02832 31.32734 2511 ft 169 kts 48°
2026-05-05 14:09 30.03582 31.33736 2306 ft 161 kts 48°
2026-05-05 14:09 30.03981 31.34268 2192 ft 156 kts 48°
2026-05-05 14:09 30.04658 31.35174 1987 ft 146 kts 48°
2026-05-05 14:09 30.05336 31.36074 1783 ft 146 kts 48°
2026-05-05 14:10 30.06218 31.37250 1517 ft 144 kts 48°
2026-05-05 14:10 30.06657 31.37836 1413 ft 146 kts 48°
2026-05-05 14:10 30.07328 31.38726 1215 ft 143 kts 47°
2026-05-05 14:10 30.07986 31.39591 1018 ft 144 kts 47°
2026-05-05 14:11 30.08647 31.40459 828 ft 147 kts 48°
2026-05-05 14:11 30.09298 31.41328 602 ft 139 kts 49°
2026-05-05 14:11 30.09957 31.42215 472 ft 146 kts 49°
2026-05-05 14:11 30.10572 31.43039 455 ft 119 kts 49°
2026-05-05 14:12 30.11031 31.43645 454 ft 63 kts 49°
2026-05-05 14:12 30.11256 31.43947 455 ft 35 kts 39°
2026-05-05 14:12 30.11424 31.44027 455 ft 9 kts 21°
2026-05-05 14:12 30.11465 31.44065 455 ft 8 kts 39°
2026-05-05 14:13 30.11520 31.44092 455 ft 10 kts 21°
2026-05-05 14:13 30.11577 31.44110 455 ft 0 kts 14°
2026-05-05 14:13 30.11612 31.44099 455 ft 10 kts 332°
2026-05-05 14:13 30.11638 31.44029 455 ft 12 kts 262°
2026-05-05 14:14 30.11580 31.43948 455 ft 14 kts 228°
2026-05-05 14:14 30.11519 31.43853 455 ft 15 kts 228°
2026-05-05 14:14 30.11444 31.43755 455 ft 17 kts 229°
2026-05-05 14:14 30.11360 31.43643 455 ft 19 kts 229°
2026-05-05 14:15 30.11268 31.43521 455 ft 21 kts 229°
2026-05-05 14:15 30.11274 31.43389 456 ft 18 kts 308°
2026-05-05 14:15 30.11371 31.43296 456 ft 19 kts 324°
2026-05-05 14:15 30.11475 31.43194 450 ft 23 kts 322°
2026-05-05 14:16 30.11608 31.43065 424 ft 20 kts 330°
2026-05-05 14:16 30.11703 31.42962 413 ft 22 kts 319°
2026-05-05 14:16 30.11839 31.42830 412 ft 29 kts 321°
2026-05-05 14:16 30.11951 31.42711 397 ft 5 kts 317°
2026-05-05 14:17 30.11959 31.42703 396 ft 0 kts 317°
2026-05-05 14:17 30.11974 31.42687 393 ft 12 kts 317°
2026-05-05 14:17 30.12059 31.42598 391 ft 18 kts 322°
2026-05-05 14:18 30.12161 31.42505 390 ft 17 kts 318°
2026-05-05 14:18 30.12169 31.42497 394 ft 0 kts 318°
2026-05-05 14:20 30.12181 31.42481 392 ft 10 kts 311°
2026-05-05 14:20 30.12184 31.42392 391 ft 13 kts 250°
2026-05-05 14:20 30.12128 31.42309 394 ft 14 kts 229°
2026-05-05 14:20 30.12050 31.42204 393 ft 20 kts 222°
2026-05-05 14:21 30.11953 31.42075 392 ft 22 kts 230°
2026-05-05 14:21 30.11851 31.41936 394 ft 23 kts 226°
2026-05-05 14:21 30.11740 31.41798 394 ft 24 kts 229°
2026-05-05 14:21 30.11628 31.41649 393 ft 25 kts 229°
2026-05-05 14:22 30.11512 31.41494 390 ft 26 kts 229°
2026-05-05 14:22 30.11391 31.41332 392 ft 27 kts 229°
2026-05-05 14:22 30.11269 31.41166 392 ft 28 kts 229°
2026-05-05 14:22 30.11141 31.40993 392 ft 29 kts 229°
2026-05-05 14:23 30.11051 31.40846 392 ft 10 kts 260°
2026-05-05 14:23 30.11061 31.40747 387 ft 16 kts 251°
2026-05-05 14:23 30.10985 31.40636 385 ft 19 kts 226°
2026-05-05 14:23 30.10911 31.40510 384 ft 18 kts 257°
2026-05-05 14:24 30.10917 31.40410 380 ft 14 kts 281°
2026-05-05 14:24 30.10965 31.40294 376 ft 8 kts 324°
2026-05-05 14:24 30.10990 31.40291 378 ft 8 kts 355°
2026-05-05 14:24 30.11018 31.40298 377 ft 6 kts 11°
2026-05-05 14:25 30.11037 31.40305 377 ft 0 kts 16°
2026-05-05 14:25 30.11045 31.40308 376 ft 0 kts 16°